All Lego sets with set number 41000 to 42000

Sort on
Set TitlePriceDifferenceAdded
Water Scooter Fun (41000)€ 5.49- € 0.50 (8%)2012-12-17
Rehearsal Stage (41004)€ 24.95+ € 4.96 (25%)2012-12-17
Stephanie's Soccer Practice (41011)€ 14.95+ € 4.96 (50%)2012-12-17
LEGO® Friends Advent Calendar (41016)€ 19.98- € 3.01 (13%)2013-09-25
Stephanie's New Born Lamb (41029)€ 9.95- € 0.04 (0%)2013-12-27
First Aid Jungle Bike (41032)€ 15.99- € 1.88 (11%)2014-05-31
Turtle's Little Paradise (41041)€ 5.95+ € 1.46 (33%)2013-12-27
Tiger's Beautiful Temple (41042)€ 18.51+ € 14.02 (312%)2013-12-27
Macaw's Fountain (41044)€ 4.95+ € 0.46 (10%)2014-05-14
Brown Bear's River (41046)€ 4.95+ € 0.46 (10%)2014-05-14
Heartlake Shopping Mall (41058)€ 109.95- € 0.11 (0%)2014-05-31
Rapunzel's Best Day Ever (41065)€ 17.78- € 8.52 (32%)2016-05-26
Anna & Kristoff’s Sleigh Adventure (41066)€ 20.13- € 14.26 (41%)2015-12-04
Belle's Enchanted Castle (41067)€ 40.24- € 25.53 (39%)2016-05-26
Arendelle Castle Celebration (41068)€ 43.84- € 24.94 (36%)2015-12-04
Treasure’s Day at the Pool (41069)€ 4.99- € 4.63 (48%)2015-12-15
Aira's Creative Workshop (41071)€ 11.79- € 1.96 (14%)2015-03-01
Naida's Epic Adventure Ship (41073)€ 29.99- € 4.40 (13%)2015-03-01
Heartlake Lighthouse (41094)€ 33.74- € 21.28 (39%)2014-12-25
Emma’s House (41095)€ 54.99- € 27.55 (33%)2014-12-25
Heartlake Hot Air Balloon (41097)€ 19.63- € 14.76 (43%)2014-12-25
Emma’s Tourist Kiosk (41098)€ 8.95- € 4.80 (35%)2015-06-01
Heartlake Skate Park (41099)€ 16.99- € 7.76 (31%)2015-06-01
Heartlake Private Jet (41100)€ 32.99+ € 5.48 (20%)2015-06-01
Heartlake Grand Hotel (41101)€ 94.62- € 42.96 (31%)2015-06-01
Pop Star Show Stage (41105)€ 42.95- € 5.20 (11%)2015-06-01
Pop Star Tour Bus (41106)€ 39.24- € 29.54 (43%)2015-06-01
Heartlake Food Market (41108)€ 35.99- € 12.16 (25%)2015-06-01
Heartlake Airport (41109)€ 88.47- € 14.71 (14%)2015-06-01
Birthday Party (41110)€ 14.99- € 9.76 (39%)2015-12-15
Best everParty Train (41111)€ 7.18- € 5.19 (42%)2015-12-15
Party Cakes (41112)€ 5.99+ € 0.50 (9%)2015-12-15
Party Gift Shop (41113)€ 5.45- € 0.04 (1%)2015-12-15
Party Styling (41114)€ 5.95+ € 0.46 (8%)2015-12-15
Emma's Creative Workshop (41115)€ 7.99- € 4.33 (35%)2015-12-19
Olivia's Exploration Car (41116)€ 14.99- € 2.81 (16%)2015-12-19
Pop Star TV Studio (41117)€ 19.42- € 5.23 (21%)2015-12-19
Heartlake Supermarket (41118)€ 26.06- € 15.04 (37%)2015-12-19
Heartlake Cupcake Café (41119)€ 31.99- € 15.96 (33%)2015-12-19
Adventure Camp Archery (41120)€ 7.98- € 4.39 (35%)2015-12-15
Adventure Camp Rafting (41121)€ 29.99- € 4.40 (13%)2015-12-15
Adventure Camp Tree House (41122)€ 35.38- € 47.16 (57%)2015-12-15
Foal's Washing Station (41123)€ 8.48- € 3.35 (28%)2016-05-29
Heartlake Puppy Daycare (41124)€ 22.49- € 10.35 (32%)2016-05-27
Horse Vet Trailer (41125)€ 28.30- € 17.68 (38%)2016-05-27
Heartlake Riding Club (41126)€ 40.17- € 25.52 (39%)2016-05-27
Amusement Park Arcade (41127)€ 10.98- € 6.09 (36%)2016-05-27
Amusement Park Space Ride (41128)€ 16.59- € 7.05 (30%)2016-05-27
Amusement Park Hot Dog Van (41129)€ 22.98- € 9.86 (30%)2016-05-27
Amusement Park Roller Coaster (41130)€ 76.81- € 41.45 (35%)2016-05-27
LEGO® Friends Advent Calendar (41131)€ 14.99- € 8.55 (36%)2016-08-31
Heartlake Party Shop (41132)€ 29.48- € 3.39 (10%)2016-05-29
Amusement Park Bumper Cars (41133)€ 28.47- € 17.56 (38%)2016-05-29
Heartlake Performance School (41134)€ 88.47- € 3.60 (4%)2016-05-29
Daisy’s Beauty Salon (41140)€ 5.30- € 7.07 (57%)2015-12-15
Pumpkin’s Royal Carriage (41141)€ 7.34- € 5.03 (41%)2015-12-15
Palace Pets Royal Castle (41142)€ 14.38- € 13.01 (47%)2015-12-19
Berry's Kitchen (41143)€ 5.89- € 0.01 (0%)2016-12-01
Best everPetite's Royal Stable (41144)€ 6.75- € 3.87 (36%)2016-12-01
Anna's Snow Adventure (41147)€ 16.18- € 7.44 (31%)2016-12-01
Best everElsa's Magical Ice Palace (41148)€ 54.98- € 21.80 (28%)2016-12-01
Moana's Island Adventure (41149)€ 24.28- € 5.24 (18%)2016-12-01
Moana's Ocean Voyage (41150)€ 32.98- € 14.26 (30%)2016-12-01
Emily Jones & the Baby Wind Dragon (41171)€ 13.95+ € 2.44 (21%)2016-03-01
The Water Dragon Adventure (41172)€ 16.95- € 6.08 (26%)2016-03-01
Fire Dragon's Lava Cave (41175)€ 32.99- € 11.80 (26%)2016-03-01
The Secret Market Place (41176)€ 37.47- € 26.52 (41%)2016-03-01
The Precious Crystal Mine (41177)€ 22.99- € 9.89 (30%)2016-05-26
Queen Dragon's Rescue (41179)€ 47.43- € 31.49 (40%)2016-05-26
Ragana's Magic Shadow Castle (41180)€ 59.19- € 39.47 (40%)2016-05-26
Best everBatgirl™ Batjet Chase (41230)€ 17.98- € 5.64 (24%)2016-12-01
Harley Quinn™ to the rescue (41231)€ 22.40- € 7.12 (24%)2016-12-01
Super Hero High School (41232)€ 69.98- € 18.61 (21%)2016-12-01
Lashina™ Tank (41233)€ 10.58- € 3.59 (25%)2016-12-01
Bumblebee™ Helicopter (41234)€ 12.44- € 1.73 (12%)2016-12-01
Wonder Woman™ Dorm (41235)€ 15.65- € 7.97 (34%)2016-12-01
Puppy Championship (41300)€ 16.95- € 4.30 (20%)2016-12-01
Puppy Parade (41301)€ 12.44- € 2.91 (19%)2016-12-01
Puppy Pampering (41302)€ 4.71--2016-12-01
Puppy Playground (41303)€ 4.29- € 0.42 (9%)2016-12-01
Puppy Treats & Tricks (41304)€ 4.70- € 0.01 (0%)2016-12-01
Emma's Photo Studio (41305)€ 8.95- € 1.66 (16%)2016-12-01
Mia's Beach Scooter (41306)€ 8.95- € 1.66 (16%)2016-12-01
Olivia's Creative Lab (41307)€ 8.29- € 2.32 (22%)2016-12-01
Stephanie's Friendship Cakes (41308)€ 8.29- € 2.32 (22%)2016-12-01
Andrea's Musical Duet (41309)€ 8.29- € 2.32 (22%)2016-12-01
Best everHeartlake Gift Delivery (41310)€ 15.88- € 5.36 (25%)2016-12-01
Heartlake Pizzeria (41311)€ 24.95- € 4.55 (15%)2016-12-01
Heartlake Sports Center (41312)€ 31.99- € 15.21 (32%)2016-12-01
Best everHeartlake Summer Pool (41313)€ 38.18- € 26.73 (41%)2016-12-01
Stephanie's House (41314)€ 54.98- € 21.74 (28%)2016-12-01
Gox (41536)€ 6.95+ € 2.82 (68%)2015-06-01
Jinky (41537)€ 4.28+ € 0.15 (4%)2015-06-01
Kamzo (41538)€ 4.08- € 0.05 (1%)2015-06-01
Spugg (41542)€ 4.28+ € 0.15 (4%)2015-06-01
Turg (41543)€ 6.95+ € 2.82 (68%)2015-06-01
Tungster (41544)€ 6.95+ € 2.82 (68%)2015-06-01
Batman™ (41585)€ 11.79+ € 0.16 (1%)2017-02-01
Batgirl™ (41586)€ 11.79+ € 0.16 (1%)2017-02-01
Robin™ (41587)€ 11.79+ € 0.16 (1%)2017-02-01
The Joker™ (41588)€ 11.79+ € 0.16 (1%)2017-02-01
Captain America (41589)€ 11.79+ € 0.16 (1%)2017-02-01
Iron Man (41590)€ 11.79+ € 0.16 (1%)2017-02-01
Black Widow (41591)€ 11.79+ € 0.16 (1%)2017-02-01
The Hulk (41592)€ 11.79+ € 0.16 (1%)2017-02-01
Best everCaptain Jack Sparrow (41593)€ 11.85--2017-02-24
Best everCaptain Armando Salazar (41594)€ 11.85--2017-02-24
Belle (41595)€ 11.79+ € 0.16 (1%)2017-02-03
Beast (41596)€ 11.79+ € 0.16 (1%)2017-02-03
4x4 Crawler Exclusive Edition (41999)€ 749.99+ € 570.00 (317%)2013-08-01

Also show unavailable sets